Burley, ID

9:39 AM MDT on June 27, 2017 (GMT -0600)
Burley Municipal

Weather History for KBYI - September, 2013

Change the Weather History Date:

Saturday, September 21, 2013

  Actual Average Record
Temperature  
Mean Temperature 66 °F 56 °F  
Max Temperature 82 °F 72 °F 90 °F (1967)
Min Temperature 50 °F 41 °F 25 °F (1983)
Degree Days  
Heating Degree Days 0 9  
Month to date heating degree days 35 118  
Since 1 July heating degree days 35 175  
Cooling Degree Days 1 0  
Month to date cooling degree days 54 19  
Year to date cooling degree days 642 363  
Growing Degree Days 16 (Base 50)    
Moisture  
Dew Point 37 °F    
Average Humidity 39    
Maximum Humidity 61    
Minimum Humidity 17    
Precipitation  
Precipitation 0.00 in 0.02 in 0.59 in (1998)
Month to date precipitation 1.22 0.36  
Year to date precipitation 3.92 7.12  
Sea Level Pressure  
Sea Level Pressure 29.60 in    
Wind  
Wind Speed 12 mph (SW)    
Max Wind Speed 29 mph    
Max Gust Speed 43 mph    
Visibility 10 miles    
Events      
T = Trace of Precipitation, MM = Missing Value Source: NWS Daily Summary

Daily Weather History Graph

Daily Weather History Graph

Search for Another Location

Airport or City:

Trip Planner

Search our weather history database for the weather conditions in past years. The results will help you decide how hot, cold, wet, or windy it might be!

Date:

Astronomy

Sep. 21, 2013 Rise Set
Actual Time 7:21 AM MDT 7:33 PM MDT
Civil Twilight 6:53 AM MDT 8:01 PM MDT
Nautical Twilight 6:20 AM MDT 8:34 PM MDT
Astronomical Twilight 5:46 AM MDT 9:08 PM MDT
Moon 8:42 PM MDT (9/21) 9:48 AM MDT (9/21)
Length of Visible Light 13h 08m
Length of Day
12h 11m
Waning Gibbous, 94% of the Moon is Illuminated
Sep 21
Waning Gibbous
Sep 26
Last Quarter
Oct 4
New
Oct 11
First Quarter
Oct 18
Full

Hourly Weather History & Observations

Time (MDT) Temp. Dew Point Humidity Pressure Visibility Wind Dir Wind Speed Gust Speed Precip Events Conditions
12:53 AM 59.0 °F 37.9 °F 46% 29.65 in 10.0 mi SSE 9.2 mph - N/A   Clear
1:53 AM 63.0 °F 35.1 °F 35% 29.62 in 10.0 mi South 13.8 mph - N/A   Clear
2:53 AM 64.0 °F 35.1 °F 34% 29.62 in 10.0 mi SSW 17.3 mph - N/A   Clear
3:53 AM 62.1 °F 35.1 °F 37% 29.63 in 10.0 mi SSW 15.0 mph - N/A   Clear
4:53 AM 57.9 °F 36.0 °F 44% 29.67 in 10.0 mi WSW 8.1 mph - N/A   Clear
5:53 AM 50.0 °F 37.0 °F 61% 29.69 in 10.0 mi SW 8.1 mph - N/A   Clear
6:53 AM 55.0 °F 36.0 °F 49% 29.68 in 10.0 mi SSW 12.7 mph - N/A   Clear
7:53 AM 52.0 °F 37.9 °F 59% 29.72 in 10.0 mi SSW 8.1 mph - N/A   Clear
8:53 AM 57.9 °F 39.0 °F 49% 29.73 in 10.0 mi SW 6.9 mph - N/A   Clear
9:53 AM 64.9 °F 41.0 °F 42% 29.70 in 10.0 mi WSW 4.6 mph - N/A   Clear
10:53 AM 69.1 °F 39.9 °F 35% 29.68 in 10.0 mi East 3.5 mph - N/A   Clear
11:53 AM 73.0 °F 35.1 °F 25% 29.66 in 10.0 mi NNE 4.6 mph - N/A   Clear
12:53 PM 75.0 °F 33.1 °F 22% 29.62 in 10.0 mi North 6.9 mph - N/A   Clear
1:53 PM 78.1 °F 35.1 °F 21% 29.57 in 10.0 mi NNW 8.1 mph - N/A   Clear
2:53 PM 79.0 °F 34.0 °F 20% 29.52 in 10.0 mi NE 4.6 mph - N/A   Clear
3:53 PM 81.0 °F 32.0 °F 17% 29.47 in 9.0 mi South 15.0 mph 23.0 mph N/A   Clear
4:53 PM 80.1 °F 34.0 °F 19% 29.47 in 10.0 mi South 13.8 mph 23.0 mph N/A   Clear
5:53 PM 79.0 °F 34.0 °F 20% 29.46 in 10.0 mi SSE 11.5 mph - N/A   Clear
6:53 PM 71.1 °F 37.0 °F 29% 29.46 in 10.0 mi West 10.4 mph - N/A   Clear
7:53 PM 66.0 °F 34.0 °F 30% 29.47 in 10.0 mi West 11.5 mph - N/A   Clear
8:53 PM 62.1 °F 34.0 °F 35% 29.49 in 10.0 mi WSW 15.0 mph 23.0 mph N/A   Clear
9:34 PM 55.4 °F 41.0 °F 58% 29.62 in 4.0 mi West 18.4 mph 36.8 mph N/A   Haze
9:53 PM 55.0 °F 41.0 °F 59% 29.53 in 6.0 mi WSW 23.0 mph 31.1 mph N/A   Haze
10:16 PM 53.6 °F 39.2 °F 58% 29.63 in 10.0 mi WSW 23.0 mph 34.5 mph N/A   Scattered Clouds
10:53 PM 53.1 °F 39.0 °F 59% 29.57 in 10.0 mi WSW 21.9 mph 33.4 mph N/A   Clear
11:53 PM 53.1 °F 37.9 °F 57% 29.56 in 10.0 mi West 20.7 mph 31.1 mph N/A   Clear